www.pogodaiklimat.ru

Погода и климат >> Архив погоды >> Россия >> Якутия >> Верхоянск


АРХИВ ПОГОДЫ в Верхоянске

Время (UTC), дата Ветер
(напр.,м/с)
 
Видим.   Явления Облачность Т
(С)
Тd
(С)
f
(%)
Тe
(С)
Тes
(С)
Комфортность P
(гПа)
Po
(гПа)
Тmin
(С)
Tmax
(С)
R
(мм)
R24
(мм)
S
(см)
06 13.02 штиль 0 20 км дым 1/0
[Ci fib]
-42.8 -45.6 74 -43 -43 опасность
обморожения
1021.6 1001.1
09 13.02 штиль 0 10 км дым 1/0
[Ci fib]
-47.3 -49.6 77 -47 -47 опасность
обморожения
1022.2 1001.3 -42.8
12 13.02 штиль 0 10 км дым ясно -49.7 -51.8 78 -50 -50 опасность
обморожения
1022.6 1001.4
15 13.02 штиль 0 10 км дым ясно -50.8 -53.1 76 -51 -51 опасность
обморожения
1022.2 1001.0
18 13.02 штиль 0 10 км дым ясно -51.6 -54.6 70 -52 -52 опасность
обморожения
1022.1 1000.8
21 13.02 штиль 0 10 км дым ясно -52.2 -54.6 75 -52 -52 опасность
обморожения
1021.9 1000.6 -52.2 15
00 14.02 штиль 0 20 км дым ясно -52.9 -54.6 82 -53 -53 опасность
обморожения
1022.0 1000.6 -53.4
03 14.02 ЮЗ 2 20 км дым ясно -47.0 -49.6 74 -57 -57 опасность
обморожения
1020.4 999.5
06 14.02 штиль 0 50 км ясно -42.3 -45.0 75 -42 -42 опасность
обморожения
1018.6 998.2
09 14.02 штиль 0 20 км ясно -48.5 -50.6 79 -49 -49 опасность
обморожения
1018.9 997.8 -42.3
12 14.02 штиль 0 20 км ясно -50.2 -53.1 71 -50 -50 опасность
обморожения
1018.4 997.3
15 14.02 штиль 0 4000 м дымка ясно -50.5 -53.1 74 -51 -51 опасность
обморожения
1016.5 995.4
18 14.02 штиль 0 20 км 3/0
[Ci fib]
-51.0 -53.1 78 -51 -51 опасность
обморожения
1014.7 993.6
21 14.02 штиль 0 20 км 3/0
[Ci fib]
-50.2 -53.1 71 -50 -50 опасность
обморожения
1012.7 991.7 -51.2 15
00 15.02 штиль 0 4000 м дымка 10/0
[As trans]
-45.5 -47.8 77 -46 -46 опасность
обморожения
1010.2 989.6 -50.8
03 15.02 штиль 0 10 км слаб. снег 10/0
[As trans]
-40.9 -43.8 73 -41 -41 опасность
обморожения
1007.8 987.7
06 15.02 штиль 0 20 км слаб. снег 10/0
[Cs]
-37.9 -40.9 73 -38 -38 опасность
обморожения
1006.2 986.4
09 15.02 штиль 0 20 км {снег} 3/0
[Ci fib]
-41.8 -44.4 76 -42 -42 опасность
обморожения
1006.4 986.3 -37.9 0.3
12 15.02 штиль 0 20 км {снег} ясно -44.0 -47.0 72 -44 -44 опасность
обморожения
1006.2 985.9
15 15.02 штиль 0 20 км ясно -45.2 -47.8 75 -45 -45 опасность
обморожения
1005.2 984.8
18 15.02 штиль 0 20 км ясно -45.0 -47.8 73 -45 -45 опасность
обморожения
1004.4 984.0
21 15.02 штиль 0 20 км ясно -45.6 -48.6 71 -46 -46 опасность
обморожения
1003.7 983.2 -45.6 15
00 16.02 штиль 0 50 км 3/0
[Ci fib]
-45.4 -47.8 77 -45 -45 опасность
обморожения
1003.4 983.0
03 16.02 ЮЗ 1 50 км 8/0
[Ci fib]
-40.3 -43.3 73 -46 -45 опасность
обморожения
1002.5 982.5
06 16.02 З 1 50 км 8/0
[Ci fib]
-37.2 -40.1 74 -42 -42 опасность
обморожения
1002.5 982.8
09 16.02 штиль 0 20 км 4/0
[Ci fib]
-39.5 -42.3 74 -40 -40 опасность
обморожения
1004.1 984.1 -37.2
12 16.02 штиль 0 20 км 10/0
[Cs]
-39.9 -42.8 74 -40 -40 опасность
обморожения
1004.9 984.9
15 16.02 Ю 1 10 км слаб. снег 10/0
[Cs]
-39.2 -41.8 76 -44 -44 опасность
обморожения
1005.8 985.9
18 16.02 штиль 0 10 км слаб. снег 10/0
[Cs]
-40.3 -43.3 73 -40 -40 опасность
обморожения
1007.0 987.0
21 16.02 СВ 1 10 км слаб. снег 10/0
[Cs]
-39.8 -42.8 73 -45 -45 опасность
обморожения
1008.7 988.6 -41.3 0.2 15
00 17.02 штиль 0 20 км слаб. снег 10/0
[Cs]
-37.3 -40.1 75 -37 -37 опасность
обморожения
1009.8 990.0 -40.0
03 17.02 ЮЗ 1 20 км слаб. снег 10/0
[Cs]
-34.3 -37.1 76 -39 -38 опасность
обморожения
1009.8 990.3
06 17.02 штиль 0 20 км слаб. снег 10/0
[Cs]
-32.6 -35.5 75 -33 -32 опасность
обморожения
1010.5 991.1
09 17.02 СВ 1 20 км {снег} 4/0
[Ci fib]
-38.6 -41.4 75 -44 -44 опасность
обморожения
1012.1 992.1 -29.9 0.4
12 17.02 штиль 0 20 км {снег} 3/0
[Ci fib]
-43.7 -46.3 75 -44 -44 опасность
обморожения
1012.8 992.4
15 17.02 штиль 0 20 км 3/0
[Ci fib]
-45.0 -47.8 73 -45 -45 опасность
обморожения
1013.3 992.7
18 17.02 штиль 0 10 км дым 3/0
[Ci fib]
-45.9 -48.6 74 -46 -46 опасность
обморожения
1013.6 992.9
21 17.02 штиль 0 10 км дым ясно -46.5 -49.6 70 -47 -47 опасность
обморожения
1014.8 994.0 -46.7 15
00 18.02 штиль 0 20 км дым 1/0
[Ac trans]
-46.4 -48.6 78 -46 -46 опасность
обморожения
1015.5 994.8 -47.1
03 18.02 ЮЗ 1 20 км дым ясно -39.4 -42.3 74 -45 -44 опасность
обморожения
1015.6 995.5
06 18.02 штиль 0 50 км ясно -33.9 -36.8 75 -34 -34 опасность
обморожения
1015.8 996.2
09 18.02 штиль 0 20 км ясно -41.2 -43.8 76 -41 -41 опасность
обморожения
1017.6 997.3 -33.2
12 18.02 штиль 0 20 км ясно -44.2 -47.0 73 -44 -44 опасность
обморожения
1018.9 998.3
15 18.02 штиль 0 20 км ясно -45.0 -47.8 73 -45 -45 опасность
обморожения
1019.5 998.8
18 18.02 штиль 0 4000 м дымка ясно -46.6 -49.6 71 -47 -47 опасность
обморожения
1020.0 999.1
21 18.02 штиль 0 10 км дым ясно -46.8 -49.6 73 -47 -47 опасность
обморожения
1020.4 999.5 -46.8 15
00 19.02 штиль 0 20 км дым ясно -46.4 -48.6 78 -46 -46 опасность
обморожения
1020.7 999.9
03 19.02 Ю 1 20 км дым ясно -39.7 -42.3 76 -45 -44 опасность
обморожения
1019.7 999.5
06 19.02 Ю 1 50 км ясно -35.4 -39.0 69 -40 -40 опасность
обморожения
1018.9 999.1
09 19.02 штиль 0 20 км ясно -40.4 -43.3 73 -40 -40 опасность
обморожения
1019.4 999.1 -34.8
12 19.02 штиль 0 20 км ясно -44.0 -47.0 72 -44 -44 опасность
обморожения
1020.6 1000.0
15 19.02 штиль 0 20 км ясно -45.5 -47.8 77 -46 -46 опасность
обморожения
1021.6 1000.9
18 19.02 штиль 0 20 км ясно -46.1 -48.6 76 -46 -46 опасность
обморожения
1022.3 1001.5
21 19.02 З 1 20 км 4/0
[Ci fib]
-45.5 -47.8 77 -51 -51 опасность
обморожения
1023.8 1003.0 -46.4 15
00 20.02 штиль 0 20 км дым ясно -45.8 -48.6 73 -46 -46 опасность
обморожения
1025.1 1004.2 -46.4
03 20.02 ЮЗ 1 20 км дым ясно -38.3 -41.6 71 -43 -42 опасность
обморожения
1024.9 1004.7

 

Местоположение метеостанции Верхоянск (Якутия, Россия): широта 67.57 долгота 133.40 высота над уровнем моря 136 м.

В архиве по умолчанию представлена погода в Верхоянске за последнюю неделю. Архивные данные за месяц целиком и за предыдущие месяцы, начиная с января 2011 года, Вы можете получить, выбрав интересующий диапазон дат из раскрывающегося списка и нажав кнопку "Ввод!".


*Определитесь, кто Вы:
робот инопланетянин человек

Внимание! Время в таблицах - всемирное. Для получения местного времени необходимо прибавить поправку, которая равна 10 ч.

Смотрите также архив погоды в соседних городах и на ближайших метеорологических станциях:

Погода в Батагае (Якутия, Россия) (52 км)
Погода в Екюччю (Якутия, Россия) (118 км)
Погода в Батагай-Алыте (Якутия, Россия) (129 км)
Погода в Усть-Чарках (Якутия, Россия) (162 км)
Погода в Иэме (Якутия, Россия) (274 км)
Погода в Усть-Куйге (Якутия, Россия) (284 км)
Погода в Себян-Кюеле (Якутия, Россия) (294 км)
Погода в Депутатском (Якутия, Россия) (329 км)
Погода в Юбилейной (Якутия, Россия) (373 км)
Погода в Джарджане (Якутия, Россия) (409 км)

Пояснения к столбцам:

Ветер - указаны скорость ветра в м/с - средняя за 10 мин, порывы в срок и между сроками (в фигурных скобках) и направление, откуда дует ветер: С - северный, СВ - северо-восточный, В - восточный, ЮВ - юго-восточный, Ю - южный, ЮЗ - юго-западный, З - западный, СЗ - северо-западный.
Видимость - горизонтальная дальность видимости в метрах или километрах. При видимости от 1 до 10 км при отсутствии осадков обычно наблюдается дымка, при ухудшении видимости до 1 км и менее - туман. В сухую погоду видимость может ухудшаться дымом, пылью или мглою.
Явления - указаны атмосферные явления, наблюдавшиеся в срок или в последний час перед сроком; фигурными скобками обозначены явления, наблюдавшиеся между сроками (за 1-3 часа до срока); квадратными скобками обозначены град или гололедные отложения с указанием их диаметра в мм.
Облачность - указаны через наклонную черту общая и нижняя облачность в баллах и высота нижней границы облаков в метрах; квадратными скобками обозначены формы облаков: Ci - перистые, Cs - перисто-слоистые, Cc - перисто-кучевые, Ac - высококучевые, As - высокослоистые, Sc - слоисто-кучевые, Ns - слоисто-дождевые, Cu - кучевые, Cb - кучево-дождевые. Подробнее классификацию облаков см. в Атласе облаков (PDF).
T - Температура воздуха - температура, измеренная на высоте 2 м над землей.
Td - Температура точки росы - температура, при понижении до которой содержащийся в воздухе водяной пар достигнет насыщения.
f - Относительная влажность воздуха - влажноcть воздуха, измеренная на высоте 2 м над землей.
Te - Эффективная температура - температура, которую ощущает одетый по сезону человек в тени. Характеристика душности погоды. При расчете учитывается влияние влажности воздуха и скорости ветра на теплоощущения человека.
Tes - Эффективная температура на солнце - температура, которую ощущает человек, с поправкой на солнечный нагрев. Характеристика знойности погоды. Зависит от высоты солнца над горизонтом, облачности и скорости ветра. Ночью, в пасмурную погоду, а также при ветре 12 м/с и более поправка равна нулю.
P - Атмосферное давление - приведенное к уровню моря атмосферное давление.
Po - Атмосферное давление - измеренное на уровне метеостанции атмосферное давление.
Tmin - Минимальная температура - минимум температуры воздуха на высоте 2 м над землей.
Tmax - Максимальная температура - максимум температуры воздуха на высоте 2 м над землей.
R - Количество осадков - Количество выпавших осадков за период времени, мм. При наведении курсора мыши на число - период времени, за который выпало указанное количество осадков.
R24 - Количество осадков - Количество выпавших осадков за 24 часа, мм.
S - Снежный покров - Высота снежного покрова, см. При наведении курсора мыши на число - состояние снежного покрова и степень покрытия местности в баллах.